Terug naar catalogus

GLOBAL-2

ActiefCommunicatieSSO
NORAD 43812·PAYLOAD·🇺🇸 United States

Gelanceerd Dec 3, 2018 vanaf Vandenberg Space Force Base

Loading…

Volgende Passages (komende 24 uur)

TLE

VersSource: Space-Track

Epoch: Sep 14, 2026, 12:49 UTC

1 43812U 18099BG  26257.53435471  .00001796  00000-0  11710-3 0  9995
2 43812  97.3496 290.3279 0005252 190.9722 169.1393 15.09097786425380

Volg GLOBAL-2 in realtime met AllMySat

Download on the App Store